AirNav   BOSE ProFlight Aviation Headset
 
 1099 users online  

3O1 Gustine Airport
Gustine, California, USA

GOING TO GUSTINE?


FAA INFORMATION EFFECTIVE 19 JULY 2018

Location

FAA Identifier: 3O1
Lat/Long: 37-15-38.0000N / 120-57-51.3000W
37-15.633333N / 120-57.855000W
37.2605556 / -120.9642500
(estimated)
Elevation: 79.2 ft. / 24.1 m (surveyed)
Variation: 16E (1985)
From city: 2 miles E of GUSTINE, CA
Time zone: UTC -7 (UTC -8 during Standard Time)
Zip code: 95322

Airport Operations

Airport use: Open to the public
Activation date: 04/1946
Control tower: no
ARTCC: OAKLAND CENTER
FSS: RANCHO MURIETA FLIGHT SERVICE STATION
NOTAMs facility: RIU (NOTAM-D service available)
Attendance: UNATNDD
Pattern altitude: 879.2 ft. MSL
Wind indicator: lighted
Segmented circle: yes
Lights: MIRL RY 18/36 PRESET LOW INTST TO INCR INTST ACTVT CTAF. ACTVT PAPI RY 18 AND PAPI RY 36 CTAF 5 CLICKS.
Beacon: white-green (lighted land airport)
Operates sunset to sunrise.

Airport Communications

CTAF: 122.9
WX AWOS-3 at LSN (13 nm S): 118.675 (209-827-7084)

Nearby radio navigation aids

VOR radial/distance  VOR name  Freq  Var
MODr164/22.0MODESTO VOR/DME114.6017E
HYPr260/27.1EL NIDO VOR/DME114.2015E
PXNr329/33.9PANOCHE VORTAC112.6016E

 
NDB name  Hdg/Dist  Freq  Var  ID
TRACY124/34.620315ETCY - -.-. -.--

Airport Services

Fuel available: 100LL
AUTOMATED CREDIT CARD FUEL SYS 24 HRS.
Parking: tiedowns

Runway Information

Runway 18/36

Dimensions: 3207 x 60 ft. / 977 x 18 m
Surface: asphalt, in good condition
Weight bearing capacity: 
Single wheel: 12.0
Runway edge lights: medium intensity
RUNWAY 18  RUNWAY 36
Latitude: 37-15.887940N37-15.379753N
Longitude: 120-57.764983W120-57.946400W
Elevation: 77.8 ft.79.2 ft.
Traffic pattern: leftleft
Runway heading: 180 magnetic, 196 true000 magnetic, 016 true
Markings: basic, in fair conditionbasic, in fair condition
Visual slope indicator: 2-light PAPI on left (3.00 degrees glide path)2-light PAPI on left (3.00 degrees glide path)
Runway end identifier lights: nono
Touchdown point: yes, no lightsyes, no lights
Obstructions: 15 ft. road, 490 ft. from runway, 155 ft. right of centerline, 19:1 slope to clear35 ft. pline, 1450 ft. from runway, 530 ft. left of centerline, 36:1 slope to clear

Airport Ownership and Management from official FAA records

Ownership: Publicly-owned
Owner: CITY OF GUSTINE
PO BOX 16
GUSTINE, CA 95322-0016
Phone 209-854-6471
Manager: KATHRYN REYES
PO BOX 16
GUSTINE, CA 95322-0016
Phone 209-854-6183
CITY HALL

Airport Operational Statistics

Aircraft based on the field: 17
Single engine airplanes: 14
Multi engine airplanes: 1
Ultralights: 2
    
Aircraft operations: avg 22/day *
75% local general aviation
25% transient general aviation
* for 12-month period ending 26 July 2017

Additional Remarks

675 X 50 PAVED RY SAFETY AREA AT NORTH END OF RY UNUSABLE FOR TKOF/LNDG.
BIRD ACTIVITY INVOF ARPT.
FOR CD CTC NORCAL APCH AT 916-361-0516.

Instrument Procedures

There are no published instrument procedures at 3O1.

Some nearby airports with instrument procedures:

KLSN - Los Banos Municipal Airport (13 nm S)
KMER - Castle Airport (20 nm E)
KMCE - Merced Regional Airport/Macready Field (22 nm E)
KMOD - Modesto City-County Airport-Harry Sham Field (22 nm N)
KCVH - Hollister Municipal Airport (31 nm SW)
 
Loc | Ops | Rwys | IFR | FBO | Links
Com | Nav | Svcs | Stats | Notes


 
Area around 3O1 (Gustine Airport)
 
Road maps at: MapQuest Bing Google
 
Aerial photo
WARNING: Photo may not be current or correct
Aerial photo of 3O1 (Gustine Airport)
Photo by Mike Musson

Do you have a better or more recent aerial photo of Gustine Airport that you would like to share? If so, please send us your photo.

 
Sectional chart

 
Airport distance calculator
Flying to Gustine Airport? Find the distance to fly.

From to 3O1

Sunrise and sunset
Times for 21-Jul-2018
 Local
(UTC-7)
 Zulu
(UTC)
Morning civil twilight05:3112:31
Sunrise06:0113:01
Sunset20:2003:20
Evening civil twilight20:4903:49

Current date and time
Zulu (UTC)  21-Jul-2018 17:38:45
Local (UTC-7)  21-Jul-2018 10:38:45
 
METAR
KMER 
20nm E 
211645Z 31010KT 10SM SKC 29/15 A2994
KMOD 
21nm N 
211653Z 32008KT 10SM CLR 26/14 A2994 RMK AO2 SLP139 T02610139
KMCE 
22nm E 
211653Z AUTO 30006KT 10SM CLR 27/16 A2994 RMK AO2 SLP135 T02720161
KCVH 
31nm SW 
211715Z AUTO 00000KT 10SM CLR 22/14 A3000 RMK A01
KSCK 
39nm N 
211655Z 34004KT 10SM CLR 26/14 A2996 RMK AO2 SLP143 T02560139
TAF
KMER 
20nm E 
211120Z 2112/2212 30007KT P6SM SCT250 AMD NOT SKED
KMOD 
21nm N 
211120Z 2112/2212 34007KT P6SM FEW250 FM220000 32011KT P6SM SCT250 FM220700 34007KT P6SM SCT250
KMCE 
22nm E 
211120Z 2112/2212 30008KT P6SM SCT250
NOTAMs
Click for the latest NOTAMs
NOTAMs are issued by the DoD/FAA and will open in a separate window not controlled by AirNav.

 

 
 

FBO, Fuel Providers, and Aircraft Ground Support

  
 Business Name 
 
 Contact 
 
 Services / Description 
 
Fuel Prices
 
Comments
  
Gustine Airport 209-854-6471
[web site]
[email]
Airport management, Aviation fuel, Public telephone, Restrooms

More info about Gustine Airport
Ascent
100LL
SS $4.55 
GUARANTEED
 
   1 read write
SS=Self service
Update Fuel Prices
 

Would you like to see your business listed on this page?

 If your business provides an interesting product or service to pilots, flight crews, aircraft, or users of the Gustine Airport, you should consider listing it here.  To start the listing process, click on the button below
 
Add a business
 

Other Pages about Gustine Airport

www.mercedrides.com/...
 
Update a link
 
Copyright © AirNav, LLC. All rights reserved. Privacy Policy  Contact